This is the latest recevied weather packets stored in our database for station/object N2PUI. If no packets are shown the sender has not sent any weather packets the latest 1 day(s).
| Time | Temp. | Humidity | Pressure | Rain* | Wind** | Luminosity | Snow |
|---|---|---|---|---|---|---|---|
| 1777958828 | 16.11° C | 55% | 1007 hPa | 0 mm | 1.34 m/s, 126° | 0 W/m² | - |
| 1777958524 | 16.11° C | 54% | 1007 hPa | 0 mm | 1.34 m/s, 137° | 0 W/m² | - |
| 1777958222 | 16.11° C | 55% | 1007.3 hPa | 0 mm | 0.89 m/s, 122° | 0 W/m² | - |
| 1777957920 | 16.11° C | 54% | 1007.3 hPa | 0 mm | 1.34 m/s, 122° | 0 W/m² | - |
| 1777957617 | 16.67° C | 54% | 1007.2 hPa | 0 mm | 0.89 m/s, 127° | 0 W/m² | - |
| 1777957315 | 16.67° C | 53% | 1007.3 hPa | 0 mm | 1.34 m/s, 133° | 0 W/m² | - |
| 1777957010 | 16.67° C | 52% | 1007.5 hPa | 0 mm | 0.89 m/s, 170° | 0 W/m² | - |
| 1777956708 | 17.22° C | 52% | 1007.5 hPa | 0 mm | 1.34 m/s, 165° | 0 W/m² | - |
| 1777956405 | 16.67° C | 52% | 1007.5 hPa | 0 mm | 0.45 m/s, 142° | 0 W/m² | - |
| 1777956102 | 16.67° C | 53% | 1007.5 hPa | 0 mm | 1.34 m/s, 226° | 0 W/m² | - |
| 1777955798 | 16.67° C | 52% | 1007.4 hPa | 0 mm | 1.34 m/s, 181° | 0 W/m² | - |
| 1777955495 | 16.67° C | 53% | 1007.4 hPa | 0 mm | 1.34 m/s, 178° | 0 W/m² | - |
| 1777955191 | 17.22° C | 52% | 1007.3 hPa | 0 mm | 0.89 m/s, 124° | 0 W/m² | - |
| 1777954889 | 17.22° C | 52% | 1007.2 hPa | 0 mm | 0.45 m/s, 195° | 0 W/m² | - |
| 1777954585 | 17.22° C | 51% | 1007 hPa | 0 mm | 1.34 m/s, 114° | 0 W/m² | - |
| 1777954283 | 17.22° C | 51% | 1006.9 hPa | 0 mm | 0.89 m/s, 158° | 0 W/m² | - |
| 1777953979 | 17.22° C | 51% | 1007.1 hPa | 0 mm | 1.79 m/s, 195° | 0 W/m² | - |
| 1777953677 | 17.22° C | 51% | 1007.1 hPa | 0 mm | 3.13 m/s, 188° | 0 W/m² | - |
| 1777953373 | 17.22° C | 50% | 1007.1 hPa | 0 mm | 1.34 m/s, 178° | 0 W/m² | - |
| 1777953069 | 17.22° C | 50% | 1007.1 hPa | 0 mm | 1.34 m/s, 140° | 0 W/m² | - |
| 1777952766 | 17.22° C | 50% | 1007.1 hPa | 0 mm | 0.89 m/s, 153° | 0 W/m² | - |
| 1777952463 | 17.22° C | 50% | 1007 hPa | 0 mm | 1.34 m/s, 146° | 0 W/m² | - |
| 1777952159 | 17.78° C | 50% | 1007.2 hPa | 0 mm | 0.45 m/s, 165° | 0 W/m² | - |
| 1777951858 | 17.78° C | 49% | 1007.1 hPa | 0 mm | 1.34 m/s, 194° | 0 W/m² | - |
| 1777951555 | 17.22° C | 50% | 1006.9 hPa | 0 mm | 1.34 m/s, 160° | 0 W/m² | - |
* Rain latest hour (hover to see other rain measurements)
** Current wind speed in m/s (hover to see current wind gust speed)